Location: Sevilla
(37.3933°N, 5.9839°W)
Time: 23:32:51
(UTC+02:00)

Tiros 1 despin weight - All Passes

Search period start: 25 June 2024 00:00
Search period end: 05 July 2024 00:00
Orbit: 577 x 621 km, 48.2° (Epoch: 24 June)

Date Brightness Start Highest point End Pass type
(mag) Time Alt. Az. Time Alt. Az. Time Alt. Az.
25 Jun - 12:04:56 10° SSW 12:08:57 32° SE 12:13:01 10° ENE daylight
25 Jun - 13:45:33 10° WSW 13:49:58 50° NNW 13:54:26 10° NE daylight
25 Jun - 15:28:17 10° WNW 15:31:54 22° N 15:35:30 10° NE daylight
25 Jun - 17:10:25 10° NW 17:14:10 24° NNE 17:17:53 10° ENE daylight
25 Jun - 18:51:24 10° NW 18:55:57 64° NNE 19:00:25 10° ESE daylight
25 Jun - 20:33:12 10° W 20:36:46 23° SW 20:40:19 10° S daylight
26 Jun - 12:14:36 10° SW 12:19:03 58° SE 12:23:32 10° ENE daylight
26 Jun - 13:56:13 10° W 14:00:24 34° NNW 14:04:35 10° NE daylight
26 Jun - 15:39:03 10° NW 15:42:30 21° N 15:45:59 10° NE daylight
26 Jun - 17:20:40 10° NW 17:24:43 30° NNE 17:28:44 10° E daylight
26 Jun - 19:01:38 10° WNW 19:06:12 78° SW 19:10:42 10° SE daylight
26 Jun - 20:44:51 10° WSW 20:46:43 12° SW 20:48:35 10° SSW daylight
27 Jun - 10:45:37 10° S 10:48:34 17° SE 10:51:33 10° E daylight
27 Jun - 12:24:43 10° WSW 12:29:15 82° NNW 12:33:50 10° NE daylight
27 Jun - 14:07:02 10° WNW 14:10:53 26° NNW 14:14:47 10° NE daylight
27 Jun - 15:49:37 10° NW 15:53:08 21° N 15:56:39 10° NE daylight
27 Jun - 17:30:50 10° NW 17:35:10 41° NNE 17:39:28 10° E daylight
27 Jun - 19:12:01 10° WNW 19:16:21 43° SW 19:20:37 10° SSE daylight
28 Jun - 10:54:34 10° SSW 10:58:33 31° SE 11:02:34 10° ENE daylight
28 Jun - 12:35:08 10° WSW 12:39:33 51° NNW 12:44:01 10° NE daylight
28 Jun - 14:17:51 10° WNW 14:21:27 22° N 14:25:04 10° NE daylight
28 Jun - 16:00:00 10° NW 16:03:43 24° NNE 16:07:27 10° ENE daylight
28 Jun - 17:40:58 10° NW 17:45:31 63° NNE 17:50:01 10° ESE daylight
28 Jun - 19:22:43 10° W 19:26:22 24° SW 19:30:00 10° S daylight
29 Jun - 11:04:13 10° SW 11:08:37 57° SE 11:13:06 10° ENE daylight
29 Jun - 12:45:47 10° W 12:49:57 35° NNW 12:54:09 10° NE daylight
29 Jun - 14:28:36 10° NW 14:32:04 21° N 14:35:32 10° NE daylight
29 Jun - 16:10:14 10° NW 16:14:16 29° NNE 16:18:16 10° E daylight
29 Jun - 17:51:11 10° WNW 17:55:46 79° SW 18:00:17 10° SE daylight
29 Jun - 19:34:16 10° WSW 19:36:18 13° SW 19:38:20 10° SSW daylight
30 Jun - 09:35:17 10° S 09:38:09 17° SE 09:41:01 10° E daylight
30 Jun - 11:14:18 10° WSW 11:18:48 83° NW 11:23:22 10° NE daylight
30 Jun - 12:56:34 10° WNW 13:00:26 27° NNW 13:04:19 10° NE daylight
30 Jun - 14:39:10 10° NW 14:42:40 21° N 14:46:11 10° NE daylight
30 Jun - 16:20:23 10° NW 16:24:42 40° NNE 16:29:01 10° E daylight
30 Jun - 18:01:33 10° WNW 18:05:54 44° SW 18:10:12 10° SSE daylight
01 Jul - 09:44:11 10° SSW 09:48:06 30° SE 09:52:04 10° ENE daylight
01 Jul - 11:24:41 10° WSW 11:29:05 52° NNW 11:33:32 10° NE daylight
01 Jul - 13:07:23 10° WNW 13:10:59 22° N 13:14:35 10° NE daylight
01 Jul - 14:49:32 10° NW 14:53:15 24° NNE 14:56:58 10° ENE daylight
01 Jul - 16:30:31 10° NW 16:35:03 61° NNE 16:39:34 10° ESE daylight
01 Jul - 18:12:13 10° W 18:15:55 25° SW 18:19:36 10° S daylight
02 Jul - 09:53:48 10° SW 09:58:09 55° SE 10:02:35 10° ENE daylight
02 Jul - 11:35:18 10° W 11:39:27 35° NNW 11:43:40 10° NE daylight
02 Jul - 13:18:07 10° NW 13:21:33 21° N 13:25:02 10° NE daylight
02 Jul - 14:59:45 10° NW 15:03:46 29° NNE 15:07:47 10° E daylight
02 Jul - 16:40:42 10° WNW 16:45:17 81° SW 16:49:50 10° SE daylight
02 Jul - 18:23:39 10° W 18:25:50 13° SW 18:28:01 10° SSW daylight
03 Jul - 08:24:56 10° S 08:27:41 16° SE 08:30:26 10° E daylight
03 Jul - 10:03:50 10° WSW 10:08:19 85° NNW 10:12:52 10° NE daylight
03 Jul - 11:46:04 10° WNW 11:49:55 27° NNW 11:53:49 10° NE daylight
03 Jul - 13:28:40 10° NW 13:32:09 21° N 13:35:39 10° NE daylight
03 Jul - 15:09:53 10° NW 15:14:12 40° NNE 15:18:30 10° E daylight
03 Jul - 16:51:02 10° WNW 16:55:24 46° SW 16:59:45 10° SSE daylight
04 Jul - 08:33:46 10° SSW 08:37:36 29° SE 08:41:31 10° ENE daylight
04 Jul - 10:14:12 10° WSW 10:18:34 52° NNW 10:23:01 10° NE daylight
04 Jul - 11:56:52 10° WNW 12:00:27 22° N 12:04:04 10° NE daylight
04 Jul - 13:39:02 10° NW 13:42:44 23° NNE 13:46:25 10° ENE daylight
04 Jul - 15:20:00 10° NW 15:24:32 60° NNE 15:29:03 10° ESE daylight
04 Jul - 17:01:39 10° WNW 17:05:25 25° SW 17:09:10 10° S daylight
